Flag for U.S.A. Weather past 2 weeks in Birmingham, Alabama, U.S.A.

Now
62 °F

Clear.


Feels Like: 62 °F
Forecast: 65 / 87 °F
Wind: No wind

Location: Birmingham International Airport

Current Time: Oct 1, 2014 at 5:21:00 AM

Latest Report: Oct 1, 2014 at 4:53 AM


Visibility: 10 mi

Pressure: 29.93 "Hg

Humidity: 90%

Dew point: 59 °F

Location of BirminghamLocation

Historic Weather in Birmingham — Graph

°F

Birmingham temperature yesterday

Maximum temperature yesterday: 84 °F (at 3:53 PM)
Minimum temperature yesterday: 63 °F (at 11:53 PM)
Average temperature yesterday: 72 °F

Past Weeks' High & Low Weather Summary

 TemperatureHumidityPressure
High89 °F (Sep 21, 2:53 PM)94% (Sep 21, 4:53 AM)30.29 "Hg (Sep 21, 4:53 AM)
Low54 °F (Sep 23, 5:53 AM)32% (Sep 22, 4:53 PM)29.87 "Hg (Sep 30, 4:53 PM)
Average73 °F67%30.06 "Hg
* Reported Sep 16 3:53 AM — Oct 1 3:53 AM, Birmingham, Weather by CustomWeather, © 2014

Note: Actual official high and low records may vary slightly from our data, if they occured in-between our weather recording intervals... More about our weather records

Advertising

Birmingham weather history for previous 24 hours

 ConditionsComfort  
Time TempWeatherWind HumidityBarometerVisibility
3:53 AM
Oct 1
62 °FClear.No wind90%29.92 "Hg10 mi
2:53 AM63 °FClear.No wind90%29.92 "Hg10 mi
1:53 AM64 °FClear.No wind87%29.92 "Hg10 mi
12:53 AM64 °FClear.No wind87%29.92 "Hg10 mi
11:53 PM
Sep 30
63 °FClear.No wind90%29.92 "Hg10 mi
10:53 PM68 °FClear.No wind82%29.92 "Hg10 mi
9:53 PM68 °FClear.No wind78%29.92 "Hg10 mi
8:53 PM69 °FClear.No wind76%29.91 "Hg10 mi
7:53 PM71 °FClear.No wind73%29.90 "Hg10 mi
6:53 PM75 °FSunny.No wind62%29.90 "Hg10 mi
5:53 PM81 °FPassing clouds.5 mph47%29.88 "Hg10 mi
4:53 PM83 °FScattered clouds.7 mph43%29.87 "Hg10 mi
3:53 PM84 °FScattered clouds.9 mph43%29.88 "Hg10 mi
2:53 PM83 °FScattered clouds.6 mph48%29.90 "Hg10 mi
1:53 PM82 °FScattered clouds.No wind49%29.92 "Hg10 mi
12:53 PM78 °FPassing clouds.5 mph60%29.95 "Hg10 mi
11:53 AM75 °FScattered clouds.6 mph66%29.97 "Hg10 mi
10:53 AM73 °FPartly sunny.6 mph71%29.98 "Hg10 mi
9:53 AM70 °FLow clouds.6 mph79%29.98 "Hg10 mi
8:53 AM68 °FPartly sunny.6 mph84%29.98 "Hg10 mi
7:53 AM65 °FPartly sunny.5 mph94%29.98 "Hg10 mi
6:53 AM64 °FPassing clouds.5 mph94%29.97 "Hg10 mi
5:53 AM65 °FPassing clouds.5 mph94%29.96 "Hg10 mi
Weather by CustomWeather, © 2014

See weather overviewHow to use our weather pages